Location: Iesi
(43.5167°N, 13.2333°E)
Time: 03:33:11
(UTC+00:00)

Genesis I - Pass Details

Date: 08 August 2020
Orbit: 504 x 518 km, 64.5° (Epoch: 27 September)

Event Time Altitude Azimuth Distance (km) Brightness Sun altitude
Rises 20:44:00 0° 325° (NW) 2,623 8.3 -21.6°
Reaches altitude 10° 20:46:10 10° 325° (NW) 1,735 7.0 -21.9°
Enters shadow 20:49:59 86° 301° (WNW) 519 3.1 -22.3°
